User: anonymous   Login
Location: STAR School
(35.3054°N, 111.2976°W)
Time: 04:57:02
(UTC-07:00)
Language:

Tiros 1 - Orbit

View from above orbital plane
View from above orbital plane
View from above satellite
View from above satellite

Ground track
Ground track

The orbit data is extracted from the following two-line orbital elements,

1    29U 60002B   19287.77516452 -.00000106  00000-0  15120-4 0  9994
2    29  48.3811  32.7389 0024603 257.1698 102.6464 14.74322531182256
Epoch (UTC): 14 October 2019 18:36:14
Eccentricity: 0.0024603
inclination: 48.3811°
perigee height: 630 km
apogee height: 664 km
right ascension of ascending node: 32.7389°
argument of perigee: 257.1698°
revolutions per day: 14.74322531
mean anomaly at epoch: 102.6464°
orbit number at epoch: 18225

The dashed part of the orbit path shows where the satellite is in the earth's shadow,  

DLR